[Iaude] MPEC J136: 2024 JH3 [a=1.66,e=0.45,i=3.0,H=28.7]

mpec at cfa.harvard.edu mpec at cfa.harvard.edu
Wed May 8 04:18:19 EDT 2024


M.P.E.C. 2024-J136                                  Issued 2024 May 8, 08:16 UT

     The Minor Planet Electronic Circulars contain information on unusual
         minor planets, routine data on comets and natural satellites,
         and occasional editorial announcements.  They are published
    on behalf of Division F of the International Astronomical Union by the
          Minor Planet Center, Smithsonian Astrophysical Observatory,
                          Cambridge, MA 02138, U.S.A.
			  
             Prepared using the Tamkin Foundation Computer Network

                              MPC at CFA.HARVARD.EDU
            URL https://www.minorplanetcenter.net/    ISSN 1523-6714

                                    2024 JH3                                    


Observations:
     K24J03H* C2024 05 04.33249914 36 18.105-11 34 40.63         17.96gUEJ136I41
     K24J03H  C2024 05 04.33284614 36 20.728-11 34 43.00         17.96gUEJ136I41
     K24J03H  C2024 05 04.33772114 36 58.465-11 35 13.17         17.58RUEJ136I41
     K24J03H  C2024 05 04.33806814 37 01.103-11 35 15.24         17.58RUEJ136I41
     K24J03H  C2024 05 06.52496816 11 52.017-11 45 10.37         20.71wXEJ136F51
     K24J03H  C2024 05 06.54728816 12 04.668-11 44 58.01         20.71wXEJ136F51
     K24J03H  C2024 05 06.55847916 12 11.021-11 44 51.05         20.57wXEJ136F51
     K24J03H KC2024 05 07.37833116 20 31.531-11 42 04.57         21.30GVEJ136I52
     K24J03H KC2024 05 07.38073516 20 32.305-11 42 03.67         21.04GVEJ136I52
     K24J03H KC2024 05 07.38313616 20 33.032-11 42 02.70               VEJ136I52
     K24J03H KC2024 05 07.38553516 20 33.788-11 42 02.30         20.74GVEJ136I52
     K24J03H KC2024 05 08.32130516 26 24.42 -11 39 00.6          22.0 GVEJ136H21
     K24J03H KC2024 05 08.32708216 26 25.52 -11 38 58.9          21.9 GVEJ136H21
     K24J03H KC2024 05 08.33285916 26 26.61 -11 38 57.4          21.9 GVEJ136H21

Observer details:
F51 Pan-STARRS 1, Haleakala.  Observers J. Herman, T. Lowe, P. Minguez, A.
    Schultz, I. Smith.  Measurers K. Chambers, T. de Boer, J. Fairlamb, H.
    Gao, M. Huber, C.-C. Lin, E. Magnier, Y. Ramanjooloo, R. Wainscoat, R.
    Weryk.  1.8-m Ritchey-Chretien + CCD.
H21 Astronomical Research Observatory, Westfield.  Observer R. Holmes.
    Measurers T. Linder, R. Holmes, L. Horn.  1.3-m f/4.0 astrograph + CCD.
I41 Palomar Mountain--ZTF.  Observers G. Helou, T. A. Prince, K.
    Venkataramani, Q.-Z. Ye, Z. T. F. Collaboration.  Measurers D. A. Duev,
    H.-W. Lin, A. A. Mahabal, F. J. Masci, Q.-Z. Ye.  1.2-m f/2.4 Schmidt +
    ZTF Camera.
I52 Steward Observatory, Mt. Lemmon Station.  Observer H. Groeller.  Measurers
    T. Beuden, V. F. Carvajal, D. Fay, J. B. Fazekas, D. C. Fuls, A. R. Gibbs,
    A. D. Grauer, H. Groeller, J. K. Hogan, R. A. Kowalski, S. M. Larson, G.
    J. Leonard, D. Rankin, R. L. Seaman, F. C. Shelly, K. W. Wierzchos.  1.0-m
    prime focus + CCD.

Orbital elements:
2024 JH3                                                 Earth MOID = 0.0008 AU
Epoch 2024 Mar. 31.0 TT = JDT 2460400.5                 MPC                     
M   1.31074              (2000.0)            P               Q                  
n   0.46085669     Peri.  313.26851     -0.99785059     -0.05480022             
a   1.6599390      Node   223.62692     +0.06411742     -0.92971682             
e   0.4500572      Incl.    2.98526     -0.01353364     -0.36417518             
P   2.14           H   28.79          G   0.15           U   8                  
Residuals in seconds of arc
240504 I41 (0.8-  1.2+)   240506 F51  0.1+  0.0     240507 I52  0.1+  0.4-
240504 I41 (1.9-  0.9+)   240506 F51  0.0   0.0     240508 H21  0.2-  0.2-
240504 I41  0.2+  0.0     240507 I52  0.4+  0.3-    240508 H21  0.0   0.1+
240504 I41  0.2-  0.0     240507 I52  0.6+  0.2-    240508 H21  0.1+  0.1+
240506 F51  0.1-  0.0     240507 I52  0.2+  0.0

Ephemeris:
2024 JH3                 a,e,i = 1.66, 0.45, 3                   q = 0.9129
Date    TT    R. A. (2000) Decl.     Delta      r    Elong.  Phase     V
2024 04 08    04 39 07.2 +11 33 14   0.1403  0.9222    52.3   120.8    29.3
...
2024 04 23    04 55 34.4 +11 17 09   0.05727 0.9637    42.2   135.6    28.8
...
2024 05 01    05 31 08.9 +10 33 42   0.01410 0.9974    43.5   136.0    25.9
...
2024 05 07    16 17 17.1 -11 38 30   0.01876 1.0267   159.8    19.9    21.2
2024 05 08    16 24 43.4 -11 35 23   0.02413 1.0318   158.9    20.6    21.8
2024 05 09    16 29 23.4 -11 33 18   0.02952 1.0371   158.6    20.8    22.2
...
2024 05 15    16 39 31.2 -11 32 04   0.06235 1.0701   161.2    17.7    23.8
...
2024 05 23    16 41 47.6 -11 43 53   0.1078  1.1176   166.6    12.1    24.9
...
2024 06 07    16 41 10.1 -12 29 00   0.2025  1.2141   168.7     9.4    26.4

A. U. Tomatic                (C) Copyright 2024 MPC           M.P.E.C. 2024-J136





More information about the Iaude mailing list